Home > Weather > Harrisburg > Past weeks

Flag for USA Past Weather in Harrisburg, Pennsylvania, USA — Yesterday and Last 2 Weeks

Now
91 °F

Passing clouds.


Feels Like: 90 °F
Forecast: 72 / 91 °F
Wind: 3 mph from West

Location: Capital City Airport

Current Time: Jul 27, 2016 at 7:10:29 PM

Latest Report: Jul 27, 2016 at 5:56 PM


Visibility: 10 mi

Pressure: 29.90 "Hg

Humidity: 34%

Dew Point: 59 °F

Location of HarrisburgLocation

Past Weather in Harrisburg — Graph

°F

Harrisburg Temperature Yesterday

Maximum temperature yesterday: 94 °F (at 3:56 PM)
Minimum temperature yesterday: 72 °F (at 4:00 AM)
Average temperature yesterday: 82 °F

High & Low Weather Summary for the Past Weeks

 TemperatureHumidityPressure
High99 °F (Jul 23, 5:56 PM)94% (Jul 26, 5:56 AM)30.24 "Hg (Jul 26, 5:56 AM)
Low64 °F (Jul 21, 3:56 AM)24% (Jul 19, 4:56 PM)29.80 "Hg (Jul 14, 4:56 PM)
Average82 °F59%30.00 "Hg
* Reported Jul 12 5:56 PM — Jul 27 5:56 PM, Harrisburg, Weather by CustomWeather, © 2016

Note: Actual official high and low records may vary slightly from our data, if they occured in-between our weather recording intervals... More about our weather records

Advertising

Harrisburg Weather History for the Previous 24 Hours

Scroll right to see more
 ConditionsComfort  
Time TempWeatherWind HumidityBarometerVisibility
5:56 PM
Wed, Jul 27
91 °FPassing clouds.3 mph34%29.90 "Hg10 mi
4:56 PM92 °FPassing clouds.5 mph33%29.90 "Hg10 mi
3:56 PM92 °FPassing clouds.7 mph33%29.92 "Hg10 mi
2:56 PM91 °FSunny.9 mph33%29.93 "Hg10 mi
1:56 PM91 °FScattered clouds.7 mph36%29.95 "Hg10 mi
12:56 PM88 °FSunny.No wind40%29.96 "Hg10 mi
11:56 AM87 °FSunny.6 mph43%29.97 "Hg10 mi
10:56 AM86 °FSunny.8 mph42%29.97 "Hg10 mi
9:56 AM83 °FSunny.6 mph50%29.98 "Hg10 mi
8:56 AM82 °FSunny.6 mph51%29.97 "Hg10 mi
7:56 AM80 °FPassing clouds.5 mph52%29.98 "Hg10 mi
6:56 AM74 °FClear.No wind74%29.97 "Hg10 mi
5:56 AM74 °FClear.No wind71%29.96 "Hg10 mi
4:56 AM74 °FClear.No wind74%29.95 "Hg10 mi
3:56 AM75 °FClear.No wind71%29.94 "Hg10 mi
2:56 AM77 °FClear.3 mph62%29.94 "Hg10 mi
1:56 AM78 °FClear.5 mph64%29.93 "Hg10 mi
12:56 AM78 °FClear.3 mph74%29.93 "Hg10 mi
11:56 PM
Tue, Jul 26
79 °FClear.No wind77%29.92 "Hg10 mi
10:56 PM81 °FClear.No wind72%29.91 "Hg10 mi
9:56 PM82 °FClear.3 mph70%29.93 "Hg10 mi
8:56 PM85 °FSunny.No wind61%29.90 "Hg10 mi
7:56 PM88 °FSunny.No wind54%29.89 "Hg10 mi
Weather by CustomWeather, © 2016

See weather overviewHow to use our weather pages